Avoca, PA

11:52 PM EST on November 18, 2019 (GMT -0500)
Wilkes-Barre-Scranton International

Weather History for KAVP - September, 2019

Change the Weather History Date:

Sunday, September 1, 2019

  Actual Average Record
Temperature  
Mean Temperature 67 °F 67 °F  
Max Temperature 77 °F 77 °F 97 °F (1932)
Min Temperature 57 °F 57 °F 41 °F (1926)
Degree Days  
Heating Degree Days 0 1  
Month to date heating degree days 0 1  
Since 1 July heating degree days 1 27  
Cooling Degree Days 2 4  
Month to date cooling degree days 2 4  
Year to date cooling degree days 741 528  
Growing Degree Days 16 (Base 50)    
Moisture  
Dew Point 55 °F    
Average Humidity 63    
Maximum Humidity 80    
Minimum Humidity 46    
Precipitation  
Precipitation 0.01 in 0.12 in 2.59 in (2003)
Month to date precipitation 0.01 0.12  
Year to date precipitation 37.67 25.15  
Sea Level Pressure  
Sea Level Pressure 30.28 in    
Wind  
Wind Speed 4 mph (ENE)    
Max Wind Speed 10 mph    
Max Gust Speed 16 mph    
Visibility 10 miles    
Events Rain    
T = Trace of Precipitation, MM = Missing Value Source: NWS Daily Summary

Daily Weather History Graph

Daily Weather History Graph

Search for Another Location

Airport or City:

Astronomy

Sep. 01, 2019 Rise Set
Actual Time 6:28 AM EDT 7:36 PM EDT
Civil Twilight 6:00 AM EDT 8:04 PM EDT
Nautical Twilight 5:26 AM EDT 8:38 PM EDT
Astronomical Twilight 4:51 AM EDT 9:13 PM EDT
Moon 8:57 AM EDT (9/1) 9:20 PM EDT (9/1)
Length of Visible Light 14h 03m
Length of Day
13h 07m
Waxing Crescent, 8% of the Moon is Illuminated
Sep 1
Waxing Crescent
Sep 5
First Quarter
Sep 14
Full
Sep 21
Last Quarter
Sep 28
New

Hourly Weather History & Observations

Time (EDT) Temp. Dew Point Humidity Pressure Visibility Wind Dir Wind Speed Gust Speed Precip Events Conditions
12:54 AM 57.0 °F 51.1 °F 81% 30.31 in 10.0 mi East 5.8 mph - N/A   Clear
1:54 AM 59.0 °F 51.1 °F 75% 30.32 in 10.0 mi East 4.6 mph - N/A   Clear
2:54 AM 59.0 °F 51.1 °F 75% 30.32 in 10.0 mi ENE 3.5 mph - N/A   Clear
3:54 AM 57.9 °F 52.0 °F 81% 30.32 in 10.0 mi ESE 4.6 mph - N/A   Clear
4:54 AM 57.9 °F 51.1 °F 78% 30.32 in 10.0 mi ENE 4.6 mph - N/A   Clear
5:54 AM 57.9 °F 51.1 °F 78% 30.33 in 10.0 mi ENE 5.8 mph - N/A   Clear
6:54 AM 57.9 °F 52.0 °F 81% 30.33 in 10.0 mi NE 5.8 mph - N/A   Clear
7:54 AM 61.0 °F 52.0 °F 72% 30.33 in 10.0 mi NNE 8.1 mph - N/A   Clear
8:54 AM 64.9 °F 52.0 °F 63% 30.33 in 10.0 mi NE 5.8 mph - N/A   Clear
9:54 AM 68.0 °F 52.0 °F 56% 30.33 in 10.0 mi Variable 6.9 mph - N/A   Clear
10:54 AM 69.1 °F 52.0 °F 54% 30.33 in 10.0 mi Variable 4.6 mph - N/A   Scattered Clouds
11:54 AM 73.0 °F 53.1 °F 49% 30.32 in 10.0 mi ESE 3.5 mph - N/A   Overcast
12:15 PM 73.9 °F 54.0 °F 50% 30.32 in 10.0 mi Variable 5.8 mph - N/A   Mostly Cloudy
12:54 PM 75.0 °F 54.0 °F 48% 30.30 in 10.0 mi Variable 6.9 mph - N/A   Scattered Clouds
1:54 PM 75.9 °F 54.0 °F 46% 30.28 in 10.0 mi Variable 5.8 mph - N/A   Scattered Clouds
2:54 PM 75.9 °F 55.9 °F 50% 30.26 in 10.0 mi Variable 5.8 mph - N/A   Mostly Cloudy
3:54 PM 73.9 °F 57.0 °F 55% 30.25 in 10.0 mi Variable 3.5 mph - N/A   Mostly Cloudy
4:54 PM 73.0 °F 57.9 °F 59% 30.23 in 10.0 mi Calm Calm - N/A   Overcast
5:54 PM 70.0 °F 59.0 °F 68% 30.24 in 10.0 mi Calm Calm - 0.00 in Rain Light Rain
6:54 PM 69.1 °F 61.0 °F 75% 30.22 in 10.0 mi Calm Calm - 0.00 in   Overcast
7:54 PM 68.0 °F 60.1 °F 76% 30.21 in 10.0 mi Calm Calm - N/A   Overcast
8:54 PM 68.0 °F 62.1 °F 81% 30.20 in 8.0 mi Variable 5.8 mph - 0.01 in Rain Light Rain
9:54 PM 66.9 °F 62.1 °F 84% 30.19 in 10.0 mi Calm Calm - 0.00 in   Clear
10:54 PM 68.0 °F 60.1 °F 76% 30.18 in 10.0 mi Calm Calm - N/A   Clear
11:54 PM 68.0 °F 60.1 °F 76% 30.17 in 10.0 mi Variable 3.5 mph - N/A   Scattered Clouds